map of CNF home
Great Circle Mapper logo
CNF - Airport
Location
City:  Belo Horizonte, Minas Gerais, Brazil
Name:Tancredo Neves International Airport
Old (Alt.):Confins International Airport
ICAO / IATA:SBCF / CNF

Details
Type:Airport (Aerodrome, Airfield)
Use:Public/Civil, International (customs port of entry)
Latitude:1938'01"S (-19.633749)
Longitude:4358'08"W (-43.968855)
Datum:WGS 1984
Elevation:2715 ft (828 m)
Runways:1
Longest:9843 × 148 ft (3000 × 45 m), paved

Time
Time Zone:UTC-3 (DST-2)
Local Time:

Weather
METAR:SBCF 251600Z 33003KT 9999 SCT035 SCT080 29/10 Q1016
TAF:SBCF 251600Z 2518/2618 10008KT 9999 FEW030 TX30/2518Z TN18/2609Z
BECMG 2518/2523 10012KT SCT020
RMK PCG

Related Locations
Nearby:
Farthest:IWO: 11948 mi / 19228 km
Iwo Jima [Iwo Jima AB], Iwo Jima Island, JP

Find:

   beyond  
but within

Other Information
Maps:
NOTAMs:
Links:
Sources:

  
flag of Brazil
flag of Minas Gerais
  

Sectional Chart

Flight Planning
at skyvector.com

Satellite Image

Google Maps Satellite View

 

Copyright © 2004-2014 Karl L. Swartz. All rights reserved.
The Great Circle Mapper name and logo are trademarks of the Great Circle Mapper.
All other trademarks mentioned herein belong to their respective owners.
Please see credits for attibutions and further copyright information.

  Follow gcmap on Facebook Follow gcmap on Twitter

hCard Microformat

Geo Microformat